CST,Max TemperatureF,Mean TemperatureF,Min TemperatureF,Max Dew PointF,MeanDew PointF,Min DewpointF,Max Humidity, Mean Humidity, Min Humidity, Max Sea Level PressureIn, Mean Sea Level PressureIn, Min Sea Level PressureIn, Max VisibilityMiles, Mean VisibilityMiles, Min VisibilityMiles, Max Wind SpeedMPH, Mean Wind SpeedMPH, Max Gust SpeedMPH,PrecipitationIn, CloudCover, Events, WindDirDegrees
2011-11-1,75,64,53,53,49,45,77,60,43,29.97,29.89,29.82,10,10,10,26,16,36,0.00,1,,177
2011-11-2,62,49,35,50,41,33,92,74,56,30.30,30.04,29.83,10,6,2,37,18,45,0.17,8,Rain-Snow,356
2011-11-3,52,39,26,32,26,20,82,55,28,30.41,30.32,30.28,10,10,10,24,12,31,0.00,1,,330
2011-11-4,58,41,23,34,27,23,92,60,28,30.31,30.18,30.02,10,10,10,20,9,25,0.00,3,,158
2011-11-5,62,51,40,43,37,30,70,57,44,30.01,29.85,29.69,10,10,10,35,20,40,0.00,4,,163
2011-11-6,66,54,41,48,42,36,100,70,40,30.03,29.90,29.73,10,10,8,24,6,30,0.00,1,,35
2011-11-7,62,52,42,61,49,34,100,80,60,30.06,29.95,29.84,10,4,0,30,10,39,1.72,7,Fog-Rain-Thunderstorm,34
2011-11-8,47,40,33,47,43,32,100,97,93,30.14,29.93,29.84,10,4,1,30,17,38,0.30,8,Rain-Snow,354
2011-11-9,56,45,34,36,32,28,100,68,35,30.41,30.32,30.12,10,10,10,26,11,32,T,1,Rain,319
2011-11-10,61,45,28,39,33,27,100,68,35,30.40,30.27,30.06,10,10,10,13,5,16,0.00,0,,216
2011-11-11,60,47,33,42,37,31,96,72,47,30.03,29.91,29.78,10,10,10,16,10,21,0.00,3,,193
2011-11-12,68,55,42,45,40,36,82,62,42,29.76,29.59,29.46,10,10,10,30,16,39,0.00,4,,185
2011-11-13,66,54,41,45,36,22,76,48,19,29.63,29.55,29.44,10,10,10,22,5,32,0.00,4,,170
2011-11-14,63,50,37,44,36,29,79,54,29,29.81,29.72,29.49,10,10,10,20,8,25,0.00,6,,280
2011-11-15,69,52,35,39,31,23,92,56,19,29.99,29.82,29.71,10,10,10,21,10,28,0.00,1,,17
2011-11-16,44,34,23,30,25,17,100,69,38,30.45,30.26,30.00,10,10,10,23,13,29,T,4,Rain,14
2011-11-17,49,35,21,30,25,20,92,66,39,30.46,30.30,30.05,10,10,10,25,12,31,0.00,2,,197
2011-11-18,59,48,37,46,36,26,77,64,51,30.03,29.82,29.64,10,10,10,44,23,55,0.00,4,,181
2011-11-19,68,50,31,52,41,25,93,69,45,30.09,29.77,29.56,10,10,9,30,20,39,0.00,6,,267
2011-11-20,35,33,30,30,27,24,82,76,69,30.28,30.21,30.11,10,9,7,22,11,28,0.00,8,,21
2011-11-21,39,36,33,38,34,30,100,90,79,30.27,30.15,30.00,9,6,2,17,5,20,0.32,8,Rain,31
2011-11-22,48,40,32,39,37,32,100,86,71,30.21,30.10,30.02,10,6,2,16,7,20,T,5,Rain,322
2011-11-23,66,47,28,45,38,28,100,73,45,30.27,30.20,30.16,10,8,4,17,7,26,0.00,1,,189
2011-11-24,66,53,39,52,45,37,100,80,60,30.17,30.08,29.96,10,9,5,29,16,35,0.00,1,,178
2011-11-25,58,49,39,55,51,45,100,90,80,29.97,29.83,29.77,10,6,3,31,21,38,0.21,8,Rain,182
2011-11-26,56,47,37,55,36,16,100,67,33,30.31,30.00,29.73,10,8,1,41,22,52,0.60,6,Rain,341
2011-11-27,45,37,28,18,14,10,63,44,25,30.38,30.30,30.24,10,10,10,26,15,35,0.00,0,,337
2011-11-28,49,36,22,26,22,16,81,58,34,30.22,30.15,30.07,10,10,10,10,4,15,0.00,0,,271
2011-11-29,50,39,27,32,25,13,82,54,25,30.36,30.28,30.15,10,10,10,21,11,28,0.00,3,,345
2011-11-30,54,39,23,29,25,21,88,63,38,30.27,30.08,29.93,10,10,10,24,12,29,0.00,3,,170